Pasco, WA
on Thursday, November 29, 2012

Thursday
Previous Day Next Day
Daily Summary
 ActualAverageRecord
Temperature
Mean Temperature °F 37°F  
Max Temperature 37°F 44°F 64°F (1995)
Min Temperature 29°F 30°F 15°F (2014)
Degree Days
Heating Degree Days 32 28  
Month to date heating degree days 630 681  
Since 1 July heating degree days 1074 1199  
Cooling Degree Days 0 0  
Month to date cooling degree days 0 0  
Year to date cooling degree days 788 710  
Moisture
Dew Point 33°F   
Average Humidity 91    
Maximum Humidity 96    
Minimum Humidity 85    
Precipitation
Precipitation 0.04 in 0.05 in 0.09 in (2003)
Month to date precipitation 1.09 1.04  
Year to date precipitation 8.55 7.57  
Snow
Snow 0.00 in in in ()
Snow Depth 0.00 in   
Wind
Wind Speed 2 mph   
Max Wind Speed 8 mph   
Max Gust Speed 10 mph   
Visibility 8 miles   
Events Rain   

Key: T is trace of precipitation, MM is missing value
Source: NWS Daily Summary
Time(PST)TemperatureDew PointHumidity Pressure Visibility Wind DirectionWind SpeedGust SpeedPrecipitationEvents Conditions
12:53 AM 32.0°F 30.0°F 92% 29.91 in 10.0 miles Calm Calm - N/A   Clear
1:53 AM 32.0°F 30.0°F 92% 29.92 in 9.0 miles ESE 4.6 mph - N/A   Clear
2:53 AM 30.0°F 28.9°F 96% 29.93 in 7.0 miles Calm Calm - N/A   Clear
3:53 AM 30.0°F 28.9°F 96% 29.92 in 7.0 miles Calm Calm - N/A   Scattered Clouds
4:00 AM 30.2°F 28.4°F 93% 29.90 in 7.0 miles Calm Calm - N/A   Mostly Cloudy
4:53 AM 32.0°F 30.9°F 96% 29.91 in 8.0 miles Calm Calm - N/A   Overcast
5:23 AM 32.0°F 30.2°F 93% 29.90 in 6.0 miles NW 3.5 mph - N/A   Overcast
5:53 AM 32.0°F 30.9°F 96% 29.89 in 6.0 miles Calm Calm - N/A   Overcast
6:53 AM 33.1°F 30.9°F 92% 29.88 in 7.0 miles NNW 4.6 mph - N/A   Overcast
7:21 AM 33.8°F 30.2°F 87% 29.87 in 9.0 miles NNW 5.8 mph - N/A   Overcast
8:53 AM 33.1°F 32.0°F 96% 29.87 in 9.0 miles Calm Calm - 0.00 in Rain Light Rain
9:53 AM 34.0°F 32.0°F 92% 29.86 in 7.0 miles Calm Calm - 0.01 in Rain Light Rain
10:53 AM 34.0°F 32.0°F 92% 29.81 in 10.0 miles North 3.5 mph - 0.00 in Rain Light Rain
11:29 AM 35.6°F 33.8°F 93% 29.79 in 10.0 miles NW 3.5 mph - 0.00 in   Overcast
11:53 AM 35.1°F 33.1°F 92% 29.80 in 10.0 miles WNW 3.5 mph - 0.00 in   Overcast
12:53 PM 36.0°F 34.0°F 93% 29.78 in 10.0 miles WNW 5.8 mph - N/A   Overcast
1:53 PM 37.0°F 34.0°F 89% 29.75 in 10.0 miles NW 5.8 mph - N/A   Overcast
2:53 PM 37.0°F 34.0°F 89% 29.76 in 10.0 miles WNW 3.5 mph - N/A   Overcast
3:23 PM 37.4°F 33.8°F 87% 29.74 in 10.0 miles WNW 4.6 mph - N/A   Overcast
3:53 PM 37.0°F 34.0°F 89% 29.75 in 10.0 miles NNW 4.6 mph - N/A   Overcast
4:32 PM 37.4°F 35.6°F 93% 29.74 in 10.0 miles Calm Calm - N/A   Overcast
4:53 PM 37.0°F 34.0°F 89% 29.74 in 10.0 miles Calm Calm - N/A   Overcast
5:53 PM 37.0°F 35.1°F 93% 29.72 in 10.0 miles Calm Calm - N/A   Overcast
6:53 PM 37.0°F 35.1°F 93% 29.71 in 9.0 miles Calm Calm - N/A   Overcast
7:53 PM 37.0°F 35.1°F 93% 29.70 in 8.0 miles Calm Calm - N/A   Overcast
8:53 PM 37.0°F 35.1°F 93% 29.69 in 8.0 miles Calm Calm - N/A   Overcast
9:53 PM 37.0°F 35.1°F 93% 29.68 in 8.0 miles North 3.5 mph - N/A   Overcast
10:23 PM 37.4°F 35.6°F 93% 29.66 in 8.0 miles Calm Calm - N/A   Overcast
10:53 PM 37.0°F 36.0°F 96% 29.68 in 7.0 miles Calm Calm - 0.00 in Rain Light Rain
11:29 PM 37.4°F 35.6°F 93% 29.65 in 5.0 miles Calm Calm - 0.02 in Rain Light Rain
11:53 PM 37.0°F 36.0°F 96% 29.64 in 6.0 miles NNW 3.5 mph - 0.03 in Rain Light Rain
Moon Phase
Nov. 29 Dec. 06 Dec. 13 Dec. 20 Dec. 28
Sunrise:07:17 AM (PST) Moon Rise:05:19 PM (PST)11/29
Sunset:04:12 PM (PST) Moon Set:08:08 AM (PST)11/29

Copyright © 2014 The Weather Underground, Inc.